Patuxent River, MD

1:15 PM EDT on July 28, 2017 (GMT -0400)
Patuxent River Naval Air Station

Weather History for KNHK - July, 2013

Change the Weather History Date:

Sunday, July 21, 2013

  Actual Average Record
Temperature  
Mean Temperature 80 °F -  
Max Temperature 89 °F 89 °F 100 °F (1987)
Min Temperature 73 °F 71 °F 55 °F (2001)
Cooling Degree Days 16    
Growing Degree Days 30 (Base 50)    
Moisture  
Dew Point 73 °F    
Average Humidity 81    
Maximum Humidity 94    
Minimum Humidity 57    
Precipitation  
Precipitation 0.22 in - - ()
Sea Level Pressure  
Sea Level Pressure 29.92 in    
Wind  
Wind Speed 6 mph (SW)    
Max Wind Speed 12 mph    
Max Gust Speed -    
Visibility 9 miles    
Events Rain , Thunderstorm    
Averages and records for this station are not official NWS values.
T = Trace of Precipitation, MM = Missing Value Source: NWS Daily Summary

Daily Weather History Graph

Daily Weather History Graph

Search for Another Location

Airport or City:

Trip Planner

Search our weather history database for the weather conditions in past years. The results will help you decide how hot, cold, wet, or windy it might be!

Date:

Astronomy

Jul. 21, 2013 Rise Set
Actual Time 5:59 AM EDT 8:24 PM EDT
Civil Twilight 5:28 AM EDT 8:54 PM EDT
Nautical Twilight 4:51 AM EDT 9:32 PM EDT
Astronomical Twilight 4:09 AM EDT 10:13 PM EDT
Moon 7:21 PM EDT (7/21) 4:42 AM EDT (7/21)
Length of Visible Light 15h 26m
Length of Day
14h 25m
Waxing Gibbous, 98% of the Moon is Illuminated
Jul 21
Waxing Gibbous
Jul 22
Full
Jul 29
Last Quarter
Aug 6
New
Aug 14
First Quarter

Hourly Weather History & Observations

Time (EDT) Temp. Heat Index Dew Point Humidity Pressure Visibility Wind Dir Wind Speed Gust Speed Precip Events Conditions
12:52 AM 80.1 °F 84.5 °F 73.9 °F 81% 29.90 in 10.0 mi SW 8.1 mph - N/A   Clear
1:52 AM 80.1 °F 84.2 °F 73.0 °F 79% 29.90 in 10.0 mi SW 8.1 mph - N/A   Clear
2:52 AM 80.1 °F 83.8 °F 72.0 °F 76% 29.89 in 10.0 mi WSW 10.4 mph - N/A   Clear
3:52 AM 79.0 °F - 72.0 °F 79% 29.89 in 10.0 mi WSW 10.4 mph - N/A   Clear
4:52 AM 77.0 °F - 72.0 °F 84% 29.89 in 10.0 mi West 4.6 mph - N/A   Clear
5:52 AM 75.9 °F - 72.0 °F 87% 29.91 in 10.0 mi West 4.6 mph - N/A   Clear
6:09 AM 75.2 °F - 71.6 °F 89% 29.91 in 9.0 mi West 4.6 mph - N/A   Mostly Cloudy
6:52 AM 77.0 °F - 72.0 °F 84% 29.91 in 8.0 mi WSW 5.8 mph - N/A   Mostly Cloudy
7:52 AM 79.0 °F - 73.0 °F 82% 29.94 in 10.0 mi West 6.9 mph - N/A   Scattered Clouds
8:52 AM 82.0 °F 86.7 °F 72.0 °F 71% 29.93 in 10.0 mi SW 4.6 mph - N/A   Scattered Clouds
9:52 AM 84.9 °F 89.4 °F 70.0 °F 61% 29.93 in 10.0 mi North 3.5 mph - N/A   Scattered Clouds
10:52 AM 84.9 °F 89.4 °F 70.0 °F 61% 29.94 in 10.0 mi Variable 3.5 mph - N/A   Mostly Cloudy
11:52 AM 87.1 °F 92.0 °F 70.0 °F 57% 29.95 in 10.0 mi NE 5.8 mph - N/A   Mostly Cloudy
12:52 PM 84.9 °F 89.4 °F 70.0 °F 61% 29.94 in 10.0 mi ESE 8.1 mph - N/A   Mostly Cloudy
1:52 PM 86.0 °F 91.5 °F 71.1 °F 61% 29.93 in 10.0 mi SE 8.1 mph - N/A   Mostly Cloudy
2:52 PM 88.0 °F 95.6 °F 73.0 °F 61% 29.92 in 10.0 mi SSE 10.4 mph - N/A   Mostly Cloudy
3:52 PM 87.1 °F 96.3 °F 75.0 °F 67% 29.91 in 10.0 mi SE 11.5 mph - N/A   Mostly Cloudy
4:52 PM 86.0 °F 93.8 °F 73.9 °F 67% 29.89 in 10.0 mi Variable 6.9 mph - N/A   Overcast
5:52 PM 84.0 °F 92.6 °F 75.9 °F 76% 29.89 in 10.0 mi SSE 5.8 mph - N/A Thunderstorm Thunderstorm
6:01 PM 84.2 °F 94.1 °F 77.0 °F 79% 29.89 in 10.0 mi Calm Calm - N/A   Clear
6:38 PM 82.4 °F 90.9 °F 77.0 °F 84% 29.91 in 10.0 mi SSE 3.5 mph - 0.00 in Thunderstorm Thunderstorm
6:52 PM 82.9 °F 90.8 °F 75.9 °F 79% 29.91 in 10.0 mi Calm Calm - 0.00 in Thunderstorm Thunderstorm
7:09 PM 82.4 °F 92.4 °F 78.8 °F 89% 29.91 in 5.0 mi South 3.5 mph - 0.00 in Rain , Thunderstorm Thunderstorms and Rain
7:52 PM 77.0 °F - 73.9 °F 90% 29.91 in 5.0 mi SSW 6.9 mph - 0.04 in Rain Rain
7:59 PM 77.0 °F - 73.4 °F 89% 29.92 in 5.0 mi SW 3.5 mph - 0.00 in Rain , Thunderstorm Light Thunderstorms and Rain
8:15 PM 77.0 °F - 73.4 °F 89% 29.92 in 10.0 mi WNW 8.1 mph - 0.00 in Thunderstorm Thunderstorm
8:37 PM 75.2 °F - 73.4 °F 94% 29.92 in 10.0 mi West 6.9 mph - 0.00 in   Partly Cloudy
8:52 PM 75.9 °F - 73.9 °F 94% 29.94 in 10.0 mi SSW 5.8 mph - 0.00 in Thunderstorm Thunderstorm
9:00 PM 75.2 °F - 73.4 °F 94% 29.94 in 10.0 mi SW 5.8 mph - N/A   Partly Cloudy
9:23 PM 75.2 °F - 73.4 °F 94% 29.94 in 10.0 mi SSW 5.8 mph - N/A   Mostly Cloudy
9:38 PM 75.2 °F - 73.4 °F 94% 29.95 in 1.8 mi South 3.5 mph - 0.15 in Rain Heavy Rain
9:45 PM 75.2 °F - 73.4 °F 94% 29.95 in 1.5 mi South 4.6 mph - 0.18 in Rain Heavy Rain
9:49 PM 75.2 °F - 73.4 °F 94% 29.95 in 3.0 mi SSW 4.6 mph - 0.18 in Rain Light Rain
9:52 PM 75.0 °F - 73.0 °F 94% 29.95 in 6.0 mi SSW 5.8 mph - 0.18 in Rain Light Rain
10:01 PM 75.2 °F - 73.4 °F 94% 29.94 in 10.0 mi SW 6.9 mph - 0.00 in   Mostly Cloudy
10:52 PM 73.9 °F - 72.0 °F 93% 29.94 in 10.0 mi SW 3.5 mph - 0.00 in   Clear
11:52 PM 73.9 °F - 71.1 °F 91% 29.93 in 10.0 mi WNW 4.6 mph - N/A   Clear